STARLINK-5362, 55493

Orbit data source: Space-Track

STARLINK-5362, 55493 is a payload satellite owned by SpaceX/Seattle (US) in LEO that was launched on Thu, 02 Feb 2023 UTC via an FALCON 9 launch vehicle from the Air Force Eastern Test Range (AFETR). Payload-class satellites include a variety of spacecraft equipped with specific instruments for various scientific and technological missions. These include communications satellites like Starlink; space stations such as the ISS; scientific satellites like the Hubble; Earth observation satellites from companies like Planet Labs, Umbra, and HawkEye 360; GPS; miniature CubeSats for education and research; and military/defense satellites.

Loading next visibility...
Identifier
55493, 2023-015AW
Orbit
LEO
Country
Flag of USUS
Related business
Manufacturer
SpaceX/Seattle
Mission
Operational Commercial Communications
Bus & Motor
STARLINK, Unknown motor
Mass
305 kg wet, ~290 kg dry
Launch date (UTC)
2023-02-02 (3 years ago)
Launch vehicle
FALCON 9
Launch site
Air Force Eastern Test Range (AFETR)
Object type
Payload
Rocket body
Debris
Shape & HBR
Box + 1 Pan, 10.1 m
Radar Cross Section
13.562 m², Large (>1 m²)

Expand to show TLE details & history
Last TLE update: 9 hours ago

TLE from 9 hours ago
0 STARLINK-5362
1 55493U 23015AW  25288.62494021  .00000714  00000-0  67948-4 0  9990
2 55493  43.0047  47.1155 0001192 271.8591  88.2115 15.02536904148783
Epoch: 2025-10-15T14:59Z
TLE epoch observation values (Epoch: 2025-10-15T14:59:54.834Z)
Latitude
0.00001°
Longitude
157.7407°
Altitude
558.829 km
Speed
7.584 km/s
True Right ascension
03h 08m 27s
True Declination
0° 00' 00"
Sunlit
Object was in full shadow at epoch
Visualization orbit readout
Latitude
Unknown
Longitude
Unknown
Altitude
Unknown
Speed
Unknown
Apparent Right ascension
Unknown
Apparent Declination
Unknown
Sunlit
N/A
Visualization observer readout
Local Sidereal Time
18:46:48
Azimuth
Unknown
Elevation
Unknown
Doppler factor
Unknown
Orbital elements
Apogee altitude
561.827 km
Perigee altitude
560.173 km
Semi-major axis
6,939.137 km
Eccentricity
0.00012
Inclination
43.0047°
RAAN
47.1155°
Arg. of periapsis
271.8591°
True anomaly
88.22515°
Mean anomaly
88.2115°
Eccentric anomaly
88.21833°
Mean motion
3.75478 °/min
Orbital period
95.88 mins
BSTAR
0.000067948
Loading maneuver chart data...
Computing Atmospheric mass density...
Loading historical data...
Loading historical data...
Loading historical data...
Loading historical data...
Loading historical data...
Loading historical data...
Loading historical data...

Documentation

Showing up to 5 results
|